[[{"header":{"parameterUnit":"m.s-1","parameterCategory":1,"la1":30.2992,"la2":30.254,"lo1":-89.0895,"lo2":-89.0443,"dy":0.0025,"dx":0.0025,"nx":19,"ny":19,"refTime":"2026-03-08T09:00:00:Z","depth":0,"parameterNumber":2,"parameterNumberName":"U-component_of_WINDS"},"data":[0,0,0,-0.5413,-0.5412,-0.5367,-0.5367,-0.5309,-0.5309,0,0,0,0,0,0,0,0,0,0,0,-0.5427,-0.5427,-0.5413,-0.5412,-0.5367,-0.5367,-0.5309,-0.5309,0,0,0,0,0,0,0,0,0,0,0,-0.5427,-0.5427,-0.5426,-0.5411,-0.5367,-0.5367,-0.531,-0.5343,0,0,0,0,0,0,0,0,0,0,-0.5386,-0.5401,-0.5427,-0.5426,-0.5411,-0.5367,-0.5367,-0.5344,-0.5341,-0.533,0,-0.5322,0,-0.5315,-0.5305,-0.5305,0,0,0,-0.541,-0.5404,-0.5391,-0.5426,-0.5411,-0.5368,-0.5387,-0.5342,-0.5338,-0.5325,-0.5321,-0.5319,-0.5314,-0.5305,-0.5305,-0.5251,-0.525,0,0,-0.5412,-0.5419,-0.5394,-0.5389,-0.5398,-0.5388,-0.5385,-0.534,-0.5335,-0.5321,-0.5317,-0.5313,-0.5304,-0.5304,-0.5251,-0.5251,0,0,0,-0.5421,-0.5421,-0.5409,-0.5391,-0.5383,-0.5387,-0.5384,-0.5337,-0.5333,-0.5317,-0.5312,-0.5304,-0.5303,-0.5251,-0.5251,-0.5249,0,0,0,-0.5422,-0.5426,-0.541,-0.5414,-0.5384,-0.536,-0.5382,-0.5336,-0.5331,-0.5312,-0.5304,-0.5303,-0.5251,-0.5251,-0.525,-0.5246,0,0,0,-0.5429,-0.5426,-0.5421,-0.5414,-0.5396,-0.5361,-0.5354,-0.5335,-0.5328,-0.5305,-0.5303,-0.5251,-0.5251,-0.525,-0.5247,-0.5234,0,0,0,-0.5439,-0.5419,-0.5421,-0.5397,-0.5396,-0.5361,-0.5354,-0.5327,-0.5307,-0.5304,-0.5251,-0.5251,-0.525,-0.5247,-0.5235,-0.5224,-0.522,0,0,-0.5417,-0.5416,-0.5402,-0.5402,-0.5369,-0.5367,-0.5333,-0.5307,-0.5297,-0.5266,-0.5265,-0.5249,-0.5247,-0.5234,-0.52,-0.5198,0,0,0,-0.5397,-0.5387,-0.5376,-0.5359,-0.534,-0.5324,-0.5303,-0.5293,-0.5267,-0.5284,-0.5241,-0.524,-0.5232,-0.5226,-0.5224,-0.5216,-0.5249,-0.5249,-0.5249,-0.5375,-0.5366,-0.5341,-0.5327,-0.531,-0.529,-0.5275,-0.5258,-0.5252,-0.5243,-0.5233,-0.5214,-0.5208,-0.5206,-0.5198,-0.5227,-0.5227,-0.5227,-0.5227,-0.5342,-0.5326,-0.5321,-0.5295,-0.5285,-0.5262,-0.5242,-0.5239,-0.5215,-0.522,-0.5213,-0.5218,-0.5203,-0.5196,-0.5227,-0.5227,-0.5227,-0.5227,-0.5227,-0.5326,-0.5316,-0.5307,-0.5281,-0.5262,-0.5248,-0.5226,-0.5218,-0.5209,-0.5202,-0.519,-0.519,-0.5188,-0.5197,-0.5197,-0.5197,-0.5197,-0.5197,-0.5197,-0.5312,-0.5302,-0.5285,-0.5265,-0.5253,-0.5236,-0.5216,-0.5204,-0.5187,-0.5182,-0.5182,-0.5177,-0.5204,-0.5211,-0.5196,-0.5196,-0.5196,-0.5196,-0.5197,-0.528,-0.5287,-0.5261,-0.525,-0.5225,-0.5207,-0.5197,-0.5172,-0.516,-0.5149,-0.5146,-0.5169,-0.5166,-0.5168,-0.5173,-0.5149,-0.5149,-0.5149,-0.5149,-0.5266,-0.5265,-0.5237,-0.5219,-0.52,-0.5189,-0.5159,-0.5144,-0.5128,-0.512,-0.5122,-0.5129,-0.5131,-0.5127,-0.513,-0.5135,-0.5102,-0.5101,-0.5101,-0.5245,-0.5242,-0.5219,-0.5206,-0.5187,-0.517,-0.5141,-0.5119,-0.5102,-0.5099,-0.5113,-0.5115,-0.5126,-0.513,-0.5125,-0.513,-0.5138,0,0]},{"header":{"parameterUnit":"m.s-1","parameterCategory":1,"la1":30.2992,"la2":30.254,"lo1":-89.0895,"lo2":-89.0443,"dy":0.0025,"dx":0.0025,"nx":19,"ny":19,"refTime":"2026-03-08T09:00:00:Z","depth":0,"parameterNumber":3,"parameterNumberName":"V-component_of_WINDS"},"data":[0,0,0,1.9251,1.9251,1.9275,1.9275,1.931,1.931,0,0,0,0,0,0,0,0,0,0,0,1.9247,1.9247,1.9251,1.9251,1.9275,1.9275,1.931,1.931,0,0,0,0,0,0,0,0,0,0,0,1.9247,1.9247,1.9248,1.9251,1.9275,1.9275,1.931,1.929,0,0,0,0,0,0,0,0,0,0,1.9266,1.9266,1.9247,1.9248,1.9252,1.9275,1.9275,1.9289,1.9291,1.9301,0,1.9311,0,1.9311,1.9313,1.9313,0,0,0,1.9249,1.9264,1.9268,1.9248,1.9252,1.9275,1.9264,1.929,1.9293,1.9304,1.9312,1.9313,1.9312,1.9313,1.9313,1.9381,1.9381,0,0,1.9247,1.9253,1.9266,1.9269,1.9267,1.9263,1.9264,1.9292,1.93,1.9312,1.9313,1.9312,1.9313,1.9314,1.938,1.9381,0,0,0,1.9245,1.9252,1.9255,1.9268,1.9272,1.9264,1.9265,1.9299,1.9299,1.9314,1.9313,1.9313,1.9314,1.938,1.9381,1.9408,0,0,0,1.9245,1.9251,1.9254,1.9258,1.9272,1.9286,1.9272,1.9297,1.93,1.9313,1.9313,1.9314,1.9379,1.938,1.9407,1.9421,0,0,0,1.9244,1.9251,1.9255,1.9258,1.9268,1.9285,1.9287,1.9298,1.93,1.9313,1.9314,1.9379,1.938,1.9405,1.9418,1.9441,0,0,0,1.9245,1.9278,1.9256,1.9292,1.9268,1.9302,1.9287,1.9312,1.9326,1.9314,1.9379,1.938,1.9404,1.9417,1.944,1.9463,1.9472,0,0,1.929,1.9284,1.9305,1.9286,1.9326,1.9298,1.9342,1.9349,1.9345,1.9369,1.9371,1.9407,1.9418,1.9441,1.9523,1.9531,0,0,0,1.9321,1.9337,1.9346,1.9361,1.9368,1.9376,1.9376,1.9379,1.94,1.9359,1.9421,1.9427,1.944,1.9451,1.9458,1.947,1.9385,1.9385,1.9385,1.9393,1.9387,1.9422,1.9419,1.9433,1.9434,1.9445,1.9449,1.9438,1.9452,1.946,1.9511,1.9524,1.9529,1.9541,1.947,1.9471,1.9471,1.9471,1.9459,1.9481,1.9466,1.9495,1.9488,1.9512,1.9514,1.9505,1.9527,1.9504,1.9516,1.9493,1.9537,1.9548,1.9473,1.9472,1.9472,1.9472,1.9472,1.9506,1.9516,1.9519,1.9541,1.9558,1.9553,1.9575,1.9567,1.956,1.9571,1.9579,1.9578,1.9578,1.9575,1.9575,1.9575,1.9575,1.9576,1.9576,1.9554,1.9557,1.9577,1.9589,1.9598,1.9608,1.961,1.9618,1.9626,1.9618,1.9618,1.9606,1.9543,1.9528,1.9578,1.9578,1.9578,1.9577,1.9577,1.9626,1.9609,1.9639,1.9649,1.9662,1.968,1.967,1.9688,1.9693,1.9705,1.969,1.9644,1.9637,1.9631,1.9619,1.9691,1.9691,1.9691,1.9691,1.9667,1.9663,1.9693,1.9708,1.9722,1.9717,1.9752,1.9753,1.9752,1.9755,1.9744,1.9726,1.9721,1.9717,1.971,1.9698,1.9788,1.9788,1.9788,1.9711,1.9708,1.974,1.9739,1.9749,1.9758,1.9791,1.9809,1.9804,1.9792,1.9758,1.9754,1.9725,1.9716,1.9705,1.9694,1.9672,0,0]}]]